Location: De Har
(53.3413°N, 6.6858°E)
Time: 17:27:22
(UTC+00:00)

Cosmos 1354 Rocket - Pass Details

Date: 22 April 2026
Orbit: 760 x 779 km, 74.0° (Epoch: 9 May)

Event Time Altitude Azimuth Distance (km) Brightness Sun altitude
Rises 02:24:58 0° 330° (NNW) 3,267 7.5 -14.8°
Reaches altitude 10° 02:27:26 10° 325° (NW) 2,332 6.6 -14.6°
Maximum altitude 02:32:29 48° 253° (WSW) 1,010 4.2 -14.0°
Drops below altitude 10° 02:37:29 10° 180° (S) 2,304 6.1 -13.5°
Enters shadow 02:38:18 - 178° (S) 2,610 6.4 -13.4°
